Theta_e
348 348 342 338 338 337 334 332 327 321 324 329 329 334 335 337 336 334 331 337 336 335 333 333 335 336 337 338 338 338 339 339 339 339 339 339 338 339
351 348 346 341 337 337 336 332 331 326 320 331 330 333 337 336 339 333 333 337 338 336 335 334 334 336 337 337 337 337 337 337 337 337 336 336 336 335
351 349 346 343 336 335 335 335 330 329 322 325 331 332 333 335 335 336 339 337 334 335 335 334 334 334 335 336 335 335 335 335 335 334 333 332 331 331
352 349 348 348 339 339 340 332 331 332 326 322 333 335 332 331 332 331 336 338 335 336 334 333 332 331 332 332 332 333 333 332 330 329 327 327 328 329
354 352 350 346 341 341 339 338 333 333 333 328 331 333 334 336 335 336 335 335 337 340 334 332 331 330 329 327 327 326 326 324 324 322 322 323 325 326
355 355 353 349 346 343 340 337 337 334 334 330 328 329 334 336 334 334 333 338 337 340 336 333 332 332 330 327 326 325 322 319 318 317 318 320 321 322
353 356 356 353 347 345 344 338 335 336 333 332 329 328 327 332 335 333 331 334 336 336 330 328 328 328 329 330 330 331 324 323 320 317 317 316 316 317
355 354 357 351 347 339 339 339 340 333 336 332 331 330 331 329 334 335 334 330 327 335 333 331 329 327 328 328 330 329 325 327 321 318 317 316 315 314
356 356 355 358 349 352 338 337 337 335 334 337 332 331 330 333 334 333 334 331 327 330 331 328 332 329 332 332 328 326 324 324 321 318 317 314 312 312
358 357 356 355 355 353 351 344 344 341 339 336 337 335 335 335 337 337 335 333 333 333 331 323 330 328 327 323 325 325 322 320 319 316 314 312 309 308
357 358 358 357 346 334 352 348 344 344 334 329 331 331 331 333 339 340 334 330 326 329 332 327 328 328 323 320 321 323 320 317 316 314 313 311 308 307
356 356 338 350 336 328 349 351 346 344 343 341 335 330 331 333 332 340 337 331 327 326 332 327 328 325 316 320 318 318 316 314 312 311 311 311 309 306
355 354 355 331 325 322 326 354 349 348 342 342 341 339 337 337 336 340 339 337 330 327 331 333 327 320 313 312 314 312 311 309 308 307 307 306 307 308
357 358 356 326 321 321 323 333 327 331 348 343 342 338 336 334 337 340 340 338 338 334 329 329 321 317 313 309 308 309 310 310 309 308 308 309 307 306
361 351 333 322 316 321 321 325 324 344 349 346 342 341 339 338 337 335 338 338 333 329 325 325 320 317 313 308 307 305 303 304 307 307 307 308 306 308
337 348 343 335 333 336 331 326 336 348 351 350 347 346 342 337 334 336 333 334 330 324 326 325 321 317 311 310 308 303 304 302 304 304 307 305 306 307
336 348 350 353 351 352 343 342 336 339 346 349 350 347 340 336 334 336 334 332 329 323 322 323 321 317 312 310 306 305 303 303 304 304 304 302 303 305
328 342 344 348 351 352 351 351 346 338 341 346 347 346 339 336 335 334 333 329 327 324 322 322 318 313 311 311 312 303 303 303 305 308 304 301 302 304
331 338 339 341 347 350 350 349 349 346 345 343 346 346 341 338 333 331 329 327 324 322 322 320 317 313 306 303 306 313 305 305 305 302 302 303 301 302
323 325 326 328 329 330 332 333 335 342 345 344 344 345 342 337 333 328 326 325 325 322 319 318 316 314 310 307 303 306 307 305 302 300 302 303 303 308
323 321 322 325 326 327 329 331 331 332 333 336 338 342 343 335 330 329 327 320 319 320 316 316 317 317 311 306 301 300 304 306 306 302 302 301 298 298
325 325 326 327 329 328 326 326 329 329 329 333 334 333 330 328 326 325 323 321 320 320 317 314 315 313 307 303 300 300 300 305 307 309 310 308 299 294
324 324 326 326 326 325 324 325 327 326 326 324 325 327 327 326 326 325 323 321 320 316 312 307 307 305 305 304 303 301 300 302 302 300 302 309 309 308
Wind_Speed
7 6 3 3 2 3 3 4 5 2 4 4 3 5 5 7 9 9 8 12 12 11 11 11 11 9 9 9 10 9 10 8 7 8 6 5 6 7
5 6 5 3 4 2 3 3 3 5 2 4 5 4 6 6 12 11 10 13 15 15 14 12 12 11 10 11 10 10 9 7 7 6 5 4 4 4
6 8 8 6 4 4 4 3 4 4 5 4 4 5 3 6 6 5 6 8 7 16 15 14 13 11 11 11 12 10 9 8 8 7 6 4 5 5
9 9 10 7 7 6 4 6 5 5 5 6 4 3 4 6 8 7 6 6 6 11 13 15 13 12 11 12 11 9 9 8 7 7 6 5 3 3
12 11 12 11 10 8 6 5 4 4 4 4 5 3 4 3 3 3 5 5 5 10 14 15 16 14 12 13 10 10 10 9 7 6 6 6 5 3
9 13 13 14 16 14 11 9 6 6 5 4 4 4 4 4 4 6 4 4 6 5 7 9 13 14 14 14 13 10 10 10 9 8 7 7 6 5
14 12 15 19 20 18 11 11 11 7 7 6 4 4 4 3 9 5 7 6 6 4 3 3 3 4 6 11 8 11 12 11 10 8 8 7 7 6
15 15 14 18 20 20 20 17 16 14 11 10 9 8 12 6 5 10 9 5 4 3 5 4 4 4 5 4 10 11 13 12 11 8 8 6 7 8
18 15 15 13 17 17 18 19 18 19 20 13 12 14 12 13 8 8 11 9 5 3 4 4 4 3 4 4 11 13 13 12 11 9 9 9 10 9
17 18 17 17 16 17 16 16 18 17 17 13 13 12 10 9 11 10 11 7 3 3 4 4 2 4 3 3 9 13 13 13 13 13 12 12 11 9
16 16 17 19 18 18 17 17 18 19 14 17 18 14 13 11 8 7 6 6 2 5 5 6 4 4 4 4 4 12 14 14 15 14 14 14 11 9
16 18 19 20 16 18 19 17 19 19 17 15 12 10 15 16 19 12 8 9 4 2 5 7 5 4 2 3 5 5 5 8 11 13 14 13 8 4
14 14 13 17 19 18 21 19 23 15 19 17 15 15 12 12 10 10 14 13 9 5 7 8 5 5 4 4 3 5 6 4 5 6 13 12 11 11
15 13 14 15 20 23 18 26 20 16 13 14 15 15 16 14 12 13 15 11 10 11 8 6 3 5 4 2 4 2 3 4 5 4 4 6 5 10
13 15 16 14 17 18 24 25 22 15 16 16 17 18 16 15 16 11 11 10 9 7 10 7 7 6 4 5 5 4 4 2 3 4 2 3 3 3
13 13 14 14 14 13 9 13 13 15 18 18 17 15 12 11 12 12 13 12 9 2 4 7 6 9 5 4 5 3 4 5 3 3 3 2 2 3
8 7 9 10 11 13 10 10 8 12 15 16 15 15 13 14 15 14 13 11 12 9 9 6 8 8 5 8 4 5 4 4 4 3 3 2 3 2
4 6 8 9 11 11 12 12 12 13 14 14 15 14 14 15 15 14 13 15 13 10 7 8 5 5 2 2 6 5 4 4 3 4 3 4 1 3
2 4 4 4 7 8 9 10 13 12 16 14 16 15 14 18 21 18 17 16 15 13 11 10 10 9 5 7 3 11 6 5 4 3 4 3 4 4
3 3 4 4 5 6 7 10 12 12 13 16 17 16 17 17 17 19 22 24 18 17 16 11 11 12 10 9 6 4 15 6 5 4 4 1 3 4
3 4 4 5 4 4 6 7 9 12 14 15 17 18 19 21 23 22 18 22 13 10 14 14 13 16 4 6 5 1 1 7 8 6 5 4 3 1
3 3 3 3 3 4 4 4 6 9 10 10 8 6 10 11 12 9 12 10 11 10 7 9 10 9 4 5 5 6 4 2 6 8 10 14 7 4
4 4 4 4 4 4 4 4 5 4 5 7 8 5 6 10 7 6 7 8 8 7 9 5 4 3 4 5 7 5 5 3 3 3 5 12 10 10
Wind_Direction
199 206 206 240 258 241 161 146 146 138 246 268 171 215 166 168 178 182 186 202 207 209 211 212 217 223 233 246 251 262 269 280 291 295 310 315 315 321
192 188 215 233 248 266 212 180 153 151 190 212 233 175 177 178 185 182 192 197 206 206 214 216 218 219 224 235 242 247 251 251 258 257 254 275 295 317
188 183 209 208 224 240 233 182 192 155 167 282 215 204 157 172 174 193 197 195 204 214 213 216 216 212 215 223 230 231 234 229 229 236 235 251 276 297
193 189 199 202 221 217 212 225 190 193 157 200 217 185 172 198 180 182 195 194 199 216 216 219 214 213 204 220 224 213 216 214 225 233 250 260 263 282
198 196 198 193 213 221 211 217 224 197 186 163 199 199 203 169 167 205 202 218 213 212 218 214 206 211 211 226 217 202 193 199 210 224 242 250 255 255
204 206 203 198 208 213 215 210 202 203 188 178 190 191 183 213 180 196 216 224 237 217 210 200 204 204 214 226 217 201 189 193 201 214 224 233 240 254
216 207 206 209 207 207 205 209 199 206 205 200 197 186 196 169 201 195 205 213 241 211 219 230 203 208 234 245 234 196 189 196 198 209 227 249 276 280
220 221 220 214 214 206 208 206 203 211 213 213 215 216 214 200 184 199 203 165 226 206 181 246 168 225 234 221 209 196 185 195 189 199 234 255 263 267
220 221 222 222 214 218 217 208 206 211 217 209 213 215 212 212 204 194 200 197 190 205 130 196 164 220 228 224 197 186 185 180 172 202 220 233 243 246
226 225 225 224 221 211 216 214 219 219 222 221 220 222 222 214 210 205 192 182 100 146 141 177 184 205 172 249 197 174 172 176 184 209 217 224 233 240
230 230 228 230 222 202 213 217 220 226 214 216 220 210 199 204 176 143 170 145 184 212 195 146 202 198 190 181 200 187 179 189 201 211 220 227 229 232
235 237 226 232 218 200 213 214 223 219 215 218 224 226 209 201 180 181 171 186 167 198 216 163 161 156 209 198 184 190 196 220 216 225 228 230 218 203
238 241 240 217 221 213 211 223 227 215 219 217 218 220 213 209 205 201 182 183 184 199 187 186 148 162 188 159 196 193 185 209 199 232 244 243 235 193
238 240 241 219 213 216 208 226 226 201 219 213 219 216 213 211 205 194 193 198 194 197 166 162 147 158 151 135 173 189 191 213 185 199 216 249 250 216
240 244 247 223 218 224 221 218 217 220 221 221 222 223 215 206 201 202 202 181 176 187 160 163 152 158 153 156 174 184 128 232 184 185 181 181 183 188
263 253 246 236 242 233 232 234 241 234 230 231 231 226 207 209 191 191 194 188 188 166 135 147 170 146 147 163 145 173 176 182 183 189 178 169 225 215
234 247 255 250 247 246 241 242 229 233 234 243 244 236 213 193 193 193 191 189 189 193 167 191 162 162 158 151 152 183 187 197 200 195 126 189 257 252
200 222 234 238 243 248 249 246 234 230 233 233 244 246 210 208 199 194 194 178 187 168 175 180 173 118 111 282 166 164 172 200 203 175 152 153 253 258
324 321 280 273 276 272 272 261 255 239 234 233 235 234 215 225 197 187 180 180 156 166 194 184 177 176 156 182 258 193 175 179 155 154 173 165 179 236
6 334 319 312 309 313 311 305 301 296 277 255 235 235 229 215 208 194 178 170 185 177 160 175 178 184 184 178 167 217 188 154 157 184 173 186 247 281
335 308 291 293 298 303 296 295 293 285 279 277 269 278 247 207 196 193 182 156 142 195 158 162 179 186 145 89 86 81 188 214 155 167 176 157 192 228
294 314 312 314 318 304 296 306 355 22 23 330 290 32 22 35 36 60 101 126 150 188 157 124 148 160 139 129 155 158 167 188 237 231 176 164 165 195
270 265 259 251 261 269 285 294 289 330 348 33 94 96 124 121 104 124 129 135 161 158 121 97 125 135 137 131 141 151 172 172 201 217 236 201 200 210